EW2855 Weather Reports


time (UTC)temp
C
wind
direction
speed
KPH
gust
KPH
rain 1hr
cm
rain 24hr
cm
rain mn
cm
humidity
%
barometer
mb
20260510213005 22 95 16.1 29.0 0.03 0.03 0.03 32 1023.2
20260510211507 20 121 17.7 27.4 0.03 0.03 0.03 34 1023.4
20260510210013 21 123 16.1 30.6 0.03 0.03 0.03 39 1023.4
20260510204521 18 102 12.9 19.3 0.03 0.03 0.03 54 1023.6
20260510203029 19 65 12.9 20.9 0.00 0.00 0.00 40 1023.7
20260510201528 20 106 19.3 30.6 0.00 0.00 0.00 32 1022.6
20260510200013 21 148 11.3 20.9 0.00 0.00 0.00 34 1022.8
20260510194507 21 177 9.7 17.7 0.00 0.00 0.00 35 1022.8
20260510193007 19 101 8.0 12.9 0.00 0.00 0.00 42 1023.2
20260510191518 18 111 6.4 33.8 0.00 0.00 0.00 46 1023.1
20260510190007 21 93 12.9 27.4 0.00 0.00 0.00 31 1023.1
20260510184513 22 125 16.1 24.1 0.00 0.00 0.00 26 1022.8
20260510183013 25 97 14.5 25.7 0.00 0.00 0.00 24 1022.8
20260510181516 22 76 9.7 24.1 0.00 0.00 0.00 27 1023.0
20260510180007 22 99 9.7 25.7 0.00 0.00 0.00 26 1023.0
20260510174511 23 69 16.1 25.7 0.00 0.00 0.00 25 1022.9
20260510173013 23 131 17.7 37.0 0.00 0.00 0.00 24 1022.8
20260510171514 22 94 3.2 20.9 0.00 0.00 0.00 22 1022.6
20260510170020 22 38 6.4 20.9 0.00 0.00 0.00 22 1022.6
20260510164506 23 132 6.4 19.3 0.00 0.00 0.00 22 1022.6
20260510163016 22 127 8.0 17.7 0.00 0.00 0.00 23 1022.6
20260510161519 23 47 9.7 19.3 0.00 0.00 0.00 23 1022.7
20260510160034 21 146 6.4 14.5 0.00 0.00 0.00 25 1022.6
20260510154523 21 83 6.4 14.5 0.00 0.00 0.00 25 1022.4
20260510153033 21 69 6.4 16.1 0.00 0.00 0.00 27 1022.5
20260510151520 21 132 8.0 17.7 0.00 0.00 0.00 27 1022.6
20260510150020 20 108 4.8 16.1 0.00 0.00 0.00 30 1022.6
20260510144520 18 113 8.0 17.7 0.00 0.00 0.00 32 1022.5
20260510143023 18 86 12.9 19.3 0.00 0.00 0.00 31 1022.3
20260510141530 17 116 12.9 17.7 0.00 0.00 0.00 35 1022.4
20260510140026 15 72 9.7 17.7 0.00 0.00 0.00 38 1022.4
20260510134525 15 75 11.3 25.7 0.00 0.00 0.00 38 1022.2
20260510133019 15 98 11.3 24.1 0.00 0.00 0.00 37 1022.1
20260510131510 15 63 12.9 29.0 0.00 0.00 0.00 36 1021.7
20260510130012 15 96 20.9 30.6 0.00 0.00 0.00 34 1021.5
20260510124524 16 67 20.9 29.0 0.00 0.00 0.00 31 1021.6
20260510123031 16 67 6.4 20.9 0.00 0.00 0.00 29 1021.2
20260510121530 17 355 8.0 20.9 0.00 0.00 0.00 28 1021.1
20260510120022 17 28 11.3 25.7 0.00 0.00 0.00 28 1020.9
20260510114537 17 13 11.3 20.9 0.00 0.00 0.00 27 1020.8
20260510113035 17 329 14.5 25.7 0.00 0.00 0.00 27 1020.6
20260510111531 18 311 25.7 40.2 0.00 0.00 0.00 26 1021.1
20260510110030 17 304 19.3 33.8 0.00 0.00 0.00 23 1020.7
20260510104534 17 277 16.1 24.1 0.00 0.00 0.00 23 1020.6
20260510103029 16 306 11.3 17.7 0.00 0.00 0.00 24 1020.3
20260510101528 17 328 3.2 14.5 0.00 0.00 0.00 22 1020.1
20260510100027 17 44 4.8 9.7 0.00 0.00 0.00 22 1019.7
20260510094537 16 360 8.0 19.3 0.00 0.00 0.00 23 1019.6
20260510093029 15 355 1.6 9.7 0.00 0.00 0.00 23 1019.7
20260510091507 15 329 1.6 4.8 0.00 0.00 0.00 22 1019.3
20260510090024 16 307 0.0 6.4 0.00 0.00 0.00 21 1018.9
20260510084526 17 312 3.2 19.3 0.00 0.00 0.00 21 1018.6
20260510083022 17 338 11.3 22.5 0.00 0.00 0.00 20 1018.2
20260510081535 17 5 12.9 19.3 0.00 0.00 0.00 20 1018.0
20260510080018 17 360 9.7 20.9 0.00 0.00 0.00 19 1018.0
20260510074532 16 21 9.7 16.1 0.00 0.00 0.00 19 1018.0
20260510073010 16 31 3.2 8.0 0.00 0.00 0.00 19 1018.1
20260510071508 16 337 3.2 9.7 0.00 0.00 0.00 17 1018.0
20260510070013 17 360 8.0 14.5 0.00 0.00 0.00 17 1017.9
20260510064528 17 5 6.4 12.9 0.00 0.00 0.00 17 1017.7
20260510063017 18 31 6.4 12.9 0.00 0.00 0.00 17 1017.6
20260510061526 16 21 6.4 11.3 0.00 0.00 0.00 20 1017.6
20260510060013 16 5 9.7 14.5 0.00 0.00 0.00 19 1017.7
20260510054506 17 5 6.4 12.9 0.00 0.00 0.00 18 1017.6
20260510053014 16 352 9.7 14.5 0.00 0.00 0.00 19 1017.6
20260510051531 17 5 4.8 9.7 0.00 0.00 0.00 18 1017.4
20260510050028 17 346 4.8 11.3 0.00 0.00 0.00 18 1017.3
20260510044536 15 53 6.4 9.7 0.00 0.00 0.00 20 1017.1
20260510043031 15 29 3.2 6.4 0.00 0.00 0.00 20 1017.2
20260510041526 16 162 1.6 6.4 0.00 0.00 0.00 19 1017.2
20260510040023 18 194 3.2 4.8 0.00 0.00 0.00 17 1017.0
20260510034507 18 360 3.2 8.0 0.00 0.00 0.00 16 1016.9
20260510033035 18 355 1.6 9.7 0.00 0.00 0.00 16 1016.8
20260510031508 19 338 6.4 12.9 0.00 0.00 0.00 16 1016.5
20260510030017 20 343 8.0 14.5 0.00 0.00 0.00 15 1016.4
20260510024534 19 331 8.0 16.1 0.00 0.00 0.00 15 1016.1
20260510023015 20 352 4.8 11.3 0.00 0.00 0.00 15 1015.9
20260510021532 21 346 4.8 12.9 0.00 0.00 0.00 14 1015.8
20260510020012 22 5 4.8 20.9 0.00 0.00 0.00 13 1015.7
20260510014516 23 337 11.3 30.6 0.00 0.00 0.00 12 1015.7
20260510013027 24 317 3.2 12.9 0.00 0.00 0.00 12 1015.4
20260510011529 25 350 4.8 25.7 0.00 0.00 0.00 11 1015.4
20260510010007 24 312 6.4 27.4 0.00 0.00 0.00 12 1015.3
20260510004509 25 305 9.7 19.3 0.00 0.00 0.00 12 1015.1
20260510003013 26 257 9.7 19.3 0.00 0.00 0.00 11 1015.1
20260510001522 25 235 12.9 38.6 0.00 0.00 0.00 12 1015.5
20260510000026 25 251 17.7 30.6 0.00 0.00 0.00 11 1015.3
20260509234511 26 229 16.1 30.6 0.00 0.00 0.00 11 1015.3
20260509233016 27 288 16.1 32.2 0.00 0.00 0.00 10 1015.5
20260509231513 27 213 12.9 30.6 0.00 0.00 0.00 11 1015.6
20260509230027 27 327 11.3 30.6 0.00 0.00 0.00 11 1015.7
20260509224528 27 329 8.0 32.2 0.00 0.00 0.00 10 1015.8
20260509223019 28 238 22.5 37.0 0.00 0.00 0.00 10 1015.9
20260509221516 28 234 16.1 30.6 0.00 0.00 0.00 10 1016.1
20260509220021 28 292 12.9 40.2 0.00 0.00 0.00 10 1016.3